Regional Weather Roundup
Issued by NWS

Home | Current Version | Previous Version | Graphics & Text | Print | Product List | Glossary On
Versions: 1 2 3 4 5 6 7 8 9 10 11 12 13 14 15 16 17 18 19 20 21 22 23 24 25 26 27 28 29 30 31 32 33 34 35 36 37 38 39 40 41 42 43 44 45 46 47 48 49 50
000
ASUS43 KOAX 262310
RWRNE

WEATHER ROUNDUP FOR NEBRASKA
NATIONAL WEATHER SERVICE OMAHA NE
600 PM CDT FRI AUG 26 2016

NOTES: SATELLITE DATA IS BEING USED TO AUGMENT CLOUD COVER ABOVE
       12000 FEET.
       "FAIR" INDICATES FEW OR NO CLOUDS BELOW 12,000 FEET WITH NO
       SIGNIFICANT WEATHER AND/OR OBSTRUCTIONS TO VISIBILITY.

  * THESE STATIONS DO NOT REPORT WEATHER SUCH AS RAIN...SNOW OR FOG.

NEZ001>004-019>022-054>056-270000-
NEBRASKA PANHANDLE

CITY           SKY/WX    TMP DP  RH WIND       PRES   REMARKS
SCOTTSBLUFF    CLOUDY    67  53  61 E13       30.04F
ALLIANCE       SUNNY     66  51  58 SE9       30.06S
CHADRON        CLOUDY    74  51  44 S9        29.99F
KIMBALL        CLOUDY    63  56  80 SE15      30.08S
SIDNEY         PTSUNNY   67  56  67 E5        30.11R
$$

NEZ057>060-069>072-079>082-270000-
SOUTHWEST NEBRASKA

CITY           SKY/WX    TMP DP  RH WIND       PRES   REMARKS
NORTH PLATTE   LGT RAIN  62  59  90 N8        30.08F
IMPERIAL       TSTM      59  58  96 E17       30.05F FOG
LEXINGTON      PTSUNNY   71  58  64 E7        30.05F
MCCOOK         CLOUDY    68  63  84 N5        30.02F
OGALLALA       CLOUDY    61  57  88 NE6       30.06F
$$

NEZ005>010-023>029-035>040-094-270000-
NORTH CENTRAL NEBRASKA

CITY           SKY/WX    TMP DP  RH WIND       PRES   REMARKS
VALENTINE      CLOUDY    62  58  86 E10       30.04F
AINSWORTH      CLOUDY    64  57  79 N10       30.08F
BROKEN BOW     CLOUDY    67  58  72 E5        30.07S
O`NEILL        CLOUDY    72  54  53 E10       30.07F
ORD            CLOUDY    71  54  54 SE9       30.04F
THEDFORD       CLOUDY    62  59  92 NE7       30.07F
$$

NEZ041-046>049-061>064-073>077-083>087-270000-
SOUTH CENTRAL NEBRASKA

CITY           SKY/WX    TMP DP  RH WIND       PRES   REMARKS
GRAND ISLAND   CLOUDY    68  61  78 E7        30.05F
AURORA         CLOUDY    65  65 100 E3        30.05S FOG
HASTINGS       CLOUDY    69  62  78 SE6       30.05F
HEBRON         PTSUNNY   72  66  82 CALM      30.02F
HOLDREGE       CLOUDY    71  57  61 E3        30.05F
KEARNEY *      PTSUNNY   73  57  56 E6        30.04F
YORK           CLOUDY    64  63  94 CALM      30.05F
$$

NEZ011>018-030>034-042>045-270000-
NORTHEAST NEBRASKA

CITY           SKY/WX    TMP DP  RH WIND       PRES   REMARKS
NORFOLK        CLOUDY    70  59  68 E9        30.06F
ALBION         CLOUDY    70  58  66 E7        30.06F
BLAIR          CLOUDY    68  64  86 NE8       30.05F
FREMONT        CLOUDY    66  61  82 NE5       30.05F
TEKAMAH        CLOUDY    66  62  87 NE7       30.06F
WAYNE          CLOUDY    70  62  76 E7        30.08F
$$

NEZ050>053-065>068-078-088>093-270000-
SOUTHEAST NEBRASKA

CITY           SKY/WX    TMP DP  RH WIND       PRES   REMARKS
LINCOLN        CLOUDY    69  65  86 NE8       30.03F
OMAHA EPPLEY   LGT RAIN  70  63  78 E6        30.04F
BEATRICE       PTSUNNY   72  66  82 E5        30.01F
FALLS CITY     RAIN      71  70  96 E7        30.01S FOG
NEBRASKA CITY  CLOUDY    67  67 100 NE9       30.02F
PLATTSMOUTH    CLOUDY    70  64  83 NE6       30.04F
$$

NEZ044-045-051>053-067-270000-
OMAHA AREA

CITY           SKY/WX    TMP DP  RH WIND       PRES   REMARKS
OMAHA EPPLEY   LGT RAIN  70  63  78 E6        30.04F
BLAIR          CLOUDY    68  64  86 NE8       30.05F
FREMONT        CLOUDY    66  61  82 NE5       30.05F
MILLARD        LGT RAIN  70  63  78 E3        30.04F
OFFUTT AFB     CLOUDY    70  64  82 NE7       30.03F
PLATTSMOUTH    CLOUDY    70  64  83 NE6       30.04F
WAHOO          CLOUDY    68  62  82 NE6       30.04F
$$




USA.gov is the U.S. government's official web portal to all federal, state and local government web resources and services.